|
Cosmos 1766 - Orbit
|
Donald C. Martin Observatory;
21:35:45
| Home | Info | Passes |
|
View from above orbital plane
|
View from above satellite
|
Ground track
|
The orbit data is extracted from the following two-line orbital elements,
1 16881U 86055A 13142.29329468 .00002983 00000-0 21833-3 0 5956
2 16881 082.5138 031.6557 0014709 107.2950 252.9886 15.03167974457442
| Epoch (UTC): | 22 May 2013 07:02:20 |
| Eccentricity: | 0.0014709 |
| inclination: | 82.5138° |
| perigee height: | 547 km |
| apogee height: | 567 km |
| right ascension of ascending node: | 31.6557° |
| argument of perigee: | 107.2950° |
| revolutions per day: | 15.03167974 |
| mean anomaly at epoch: | 252.9886° |
| orbit number at epoch: | 45744 |
The dashed part of the orbit path shows where the satellite is in the earth's shadow,
|
|